Theta_e
303 303 303 303 303 303 303 304 304 304 304 304 304 304 304 304 304 305 304 304 305 305 305 305 305 305 305 306 306 305 299 297 308 308 303 307 309 308 307 305 305 305 309 313 313 315 316 314 314 314 315 314 310 311 310 311 319 319 322 327 322 322 322 322 325 322 321 324 322 322 321 320 324 326 324 323 326 327 325 327 331 336 337 333 329 329 331 332
303 303 303 303 303 303 303 303 303 304 304 304 304 304 304 304 304 304 304 304 304 304 305 305 306 306 305 306 304 303 298 296 308 308 300 304 308 306 303 302 303 304 307 311 313 314 316 316 314 314 315 316 312 310 312 314 316 319 326 324 316 319 323 322 324 321 319 320 321 321 319 319 320 321 322 323 330 329 325 328 334 339 337 332 331 330 332 331
303 303 303 303 303 303 303 303 303 303 304 304 304 304 304 304 304 304 304 304 304 304 305 305 305 305 306 305 303 301 296 299 310 306 299 303 307 305 301 301 303 304 306 308 311 312 314 315 313 315 316 315 315 312 312 316 316 319 323 317 315 322 325 323 324 323 321 319 321 321 319 320 319 321 322 322 328 329 329 329 330 338 338 339 339 331 330 331
303 303 303 303 302 302 303 303 303 303 304 304 303 304 303 303 304 303 304 304 304 304 304 305 305 305 306 304 301 299 296 304 312 301 299 304 304 304 302 301 303 304 306 307 310 311 313 314 311 314 316 317 320 313 310 314 316 318 316 312 317 322 322 322 324 323 322 319 318 320 321 321 319 321 323 322 324 326 330 330 326 333 335 340 341 331 330 330
303 302 302 302 302 302 303 303 303 304 304 304 303 304 303 304 303 303 304 304 304 304 304 304 305 305 305 303 300 298 297 303 306 299 301 304 300 302 302 303 305 304 306 307 309 309 312 313 313 317 316 317 321 314 310 311 311 313 315 315 318 319 318 321 325 323 320 318 318 319 320 321 320 320 321 322 322 323 328 328 327 329 329 339 339 331 331 331
302 302 302 302 302 302 303 303 303 303 303 304 303 304 304 304 303 304 304 304 304 304 304 304 304 305 304 303 298 298 299 298 299 299 302 303 300 299 300 302 305 305 306 307 307 307 311 313 315 319 315 315 317 313 311 311 309 309 313 316 316 315 316 319 320 318 316 316 317 318 318 319 320 320 320 321 320 323 326 325 326 325 324 333 335 331 332 332
302 302 302 302 302 302 302 303 303 303 303 303 304 304 304 304 304 304 304 304 304 304 305 304 305 305 303 302 298 300 303 298 298 299 301 302 301 299 299 300 302 304 306 307 306 306 311 313 314 316 315 316 316 314 314 314 314 313 314 316 313 313 314 314 313 312 313 314 314 316 316 317 320 320 320 321 322 324 324 323 329 329 325 330 337 335 333 332
302 302 301 302 302 302 303 303 303 303 303 304 304 304 303 304 304 304 304 304 304 304 305 305 305 304 303 302 300 302 304 299 299 300 300 303 302 301 300 299 299 301 304 306 306 306 311 312 312 313 314 316 316 316 316 315 316 315 316 316 313 315 315 314 314 313 313 313 314 316 316 317 319 320 320 320 322 324 323 322 334 342 337 337 340 338 333 332
302 302 301 302 302 302 303 303 303 303 304 304 303 302 301 302 304 304 304 303 304 304 304 305 305 304 303 302 300 302 301 299 300 301 300 302 302 301 300 298 298 299 302 306 306 306 309 310 311 311 311 313 315 317 316 316 317 313 313 315 314 315 315 316 317 317 315 314 315 315 317 318 318 318 318 319 319 320 319 318 332 345 345 342 337 335 334 333
302 302 301 302 302 302 302 303 303 303 304 303 300 299 299 301 303 303 302 301 303 304 305 305 305 304 303 302 301 301 300 299 301 301 301 301 301 300 299 298 298 299 302 305 306 306 307 308 310 309 310 313 315 316 315 316 317 314 313 314 314 315 315 317 318 317 315 314 315 314 315 316 316 317 316 320 322 320 319 319 331 343 346 342 336 334 333 333
301 301 301 302 302 302 302 303 303 303 303 300 298 298 299 300 301 300 298 298 299 301 305 304 303 303 301 303 304 301 299 300 300 300 301 300 300 300 299 298 298 299 301 304 306 306 307 307 308 309 312 315 315 316 316 316 315 315 316 313 313 314 315 317 317 316 314 314 316 315 315 315 316 317 315 318 321 319 320 320 328 343 348 342 335 334 333 333
301 301 302 300 300 300 301 303 303 304 302 299 298 298 299 299 299 298 297 297 296 299 304 302 300 301 300 304 306 301 299 300 300 301 301 301 301 301 300 299 299 299 301 304 306 306 307 307 307 311 314 314 315 317 317 315 315 316 315 313 314 314 315 316 317 318 315 314 318 316 315 314 314 318 317 318 320 318 320 320 322 335 346 344 336 334 334 332
301 301 301 299 297 296 299 302 303 304 302 298 298 298 298 298 297 298 297 298 297 299 303 302 300 300 301 305 304 300 300 300 300 301 301 301 302 302 301 300 301 301 302 304 305 306 307 306 308 312 315 314 315 315 314 313 314 314 313 313 315 315 317 317 313 315 314 316 320 315 312 311 312 316 317 319 320 320 320 321 320 323 334 342 339 334 334 333
300 301 301 297 296 295 297 302 303 303 301 298 298 298 298 298 297 298 297 298 298 299 301 300 300 299 302 306 301 299 300 299 301 301 301 301 301 302 302 301 300 302 304 305 305 305 306 307 309 311 313 315 315 313 313 314 314 315 313 313 315 315 322 321 312 313 313 315 319 316 312 311 312 316 318 319 320 320 320 319 320 320 323 331 336 335 334 333
300 301 301 297 295 295 296 301 303 303 301 298 298 298 298 298 298 298 298 299 299 299 299 299 300 301 305 306 300 300 300 299 301 300 301 301 301 301 302 302 301 302 304 304 304 304 306 307 309 311 313 315 315 314 314 314 314 315 312 313 316 315 320 320 314 315 313 311 315 316 315 313 313 316 317 317 317 318 318 317 318 318 318 320 326 331 334 333
300 300 300 296 295 295 295 300 303 302 299 298 298 298 298 298 298 298 298 298 300 300 299 299 300 302 306 303 298 300 300 299 300 300 301 301 301 301 302 303 302 303 304 304 306 305 306 308 310 312 314 314 315 315 315 313 313 315 313 312 314 314 316 317 315 317 313 309 311 313 314 313 315 317 314 312 313 314 316 317 317 317 317 317 318 322 327 332
299 300 300 296 295 295 294 300 303 301 298 299 298 297 298 298 299 299 297 299 300 300 300 299 299 301 304 300 299 300 298 299 300 300 301 301 301 302 302 304 304 304 305 306 307 306 307 309 311 313 313 313 314 315 313 311 312 313 312 312 311 311 313 314 314 315 312 310 310 312 312 311 312 314 312 310 311 312 313 314 315 315 315 316 316 317 319 324
299 300 299 295 295 295 294 299 302 300 299 299 298 297 299 299 300 299 297 299 300 301 302 300 299 302 303 300 299 299 298 299 300 300 300 301 301 301 302 304 305 305 307 308 308 308 310 311 312 313 312 311 312 312 311 310 311 310 310 310 310 311 311 311 312 313 311 311 311 312 312 311 311 311 311 312 311 311 311 311 312 312 313 315 316 316 315 317
299 300 298 295 295 295 294 299 301 299 299 299 297 298 298 297 300 300 297 298 300 301 302 300 298 301 301 300 299 298 299 299 300 300 300 301 301 301 302 303 305 307 309 309 307 308 311 311 312 310 309 309 311 311 310 310 311 311 311 312 312 312 311 310 311 312 311 310 311 312 312 311 311 310 310 311 311 311 311 311 311 310 311 312 314 315 315 315
299 299 297 294 295 295 294 299 300 299 300 299 297 298 299 300 302 303 299 299 299 297 298 299 298 300 301 300 299 298 300 300 301 301 300 301 300 301 302 302 304 307 307 306 305 307 309 309 310 309 307 308 312 313 311 311 312 312 313 312 312 312 311 310 311 312 311 311 311 311 311 309 308 309 309 310 310 310 310 311 311 311 311 311 312 314 315 315
299 299 297 294 295 294 294 298 299 299 300 299 298 299 300 300 301 302 300 300 298 295 297 298 296 299 300 299 298 298 300 302 301 300 300 300 300 302 303 302 304 305 305 304 304 307 309 307 308 308 307 308 311 312 311 311 311 312 313 312 312 311 311 311 310 311 310 310 311 310 310 309 308 309 309 310 311 310 310 311 311 311 311 311 311 313 315 315
298 298 296 293 294 294 294 298 299 299 300 299 299 299 300 300 298 298 298 301 300 295 296 297 296 300 299 298 299 298 300 303 303 300 299 300 301 302 303 303 304 304 304 304 304 306 306 307 307 306 306 307 309 310 310 310 310 311 312 312 312 312 312 311 311 312 310 310 312 311 311 311 310 310 310 310 310 309 310 310 311 311 311 311 311 312 313 314
297 298 296 293 294 294 294 298 298 299 300 300 300 300 300 300 299 299 298 301 302 298 298 299 299 302 301 299 299 299 301 303 302 301 299 300 302 302 302 304 304 304 304 304 305 305 304 305 305 304 304 306 308 309 310 310 310 310 311 311 310 311 312 312 312 313 311 311 311 311 312 311 311 311 310 310 310 309 310 311 311 311 311 311 311 312 313 313
297 298 296 293 293 294 295 297 298 299 300 300 300 300 300 300 300 300 299 298 301 302 299 297 298 300 301 300 298 299 301 301 300 300 299 300 302 302 303 303 304 305 304 304 305 305 304 304 304 306 306 307 308 309 309 310 310 310 310 311 310 310 311 311 311 312 311 311 311 312 313 312 309 310 309 308 310 311 310 311 311 311 311 312 312 313 313 314
297 298 296 293 293 294 295 297 297 299 299 299 300 300 300 301 299 300 299 297 298 300 297 296 297 299 299 299 297 297 299 301 301 299 298 300 302 303 304 303 304 304 304 304 305 304 305 305 305 308 308 308 309 309 308 309 309 309 310 310 310 310 311 311 311 312 312 312 311 313 314 313 309 311 313 311 313 313 311 311 312 312 312 312 312 312 313 314
296 297 295 294 295 294 295 298 297 298 300 299 300 301 300 300 300 299 299 300 301 297 296 298 298 299 299 298 297 297 299 302 300 298 298 299 301 302 303 305 304 304 304 304 304 305 306 306 305 308 308 308 308 308 308 308 308 309 308 308 308 308 309 311 311 312 313 313 312 312 314 315 312 312 315 316 316 314 312 313 313 312 311 310 311 311 311 312
296 296 294 295 297 296 296 299 298 298 300 300 300 302 300 299 300 298 299 304 302 295 296 299 297 298 299 297 297 298 301 301 299 298 298 298 301 301 302 304 304 303 304 303 303 304 306 305 304 307 307 305 305 306 307 307 307 309 308 308 307 307 308 310 311 312 313 312 312 313 313 315 315 312 313 314 314 313 313 313 312 312 312 311 310 309 309 310
295 294 293 295 297 296 296 297 297 299 300 300 301 301 300 300 299 298 302 303 297 294 297 299 298 298 297 296 298 299 300 300 299 299 297 297 300 301 303 305 304 302 302 302 303 303 304 304 304 306 305 303 304 305 307 307 306 307 308 307 306 306 308 310 311 312 312 312 313 313 314 316 314 312 313 312 312 314 314 313 313 313 313 312 310 309 308 307
293 292 293 295 296 295 295 296 298 300 300 300 301 300 299 299 296 298 306 301 294 295 297 297 298 298 297 297 299 299 298 299 299 298 297 298 298 299 302 304 303 302 302 302 303 303 302 302 303 304 305 305 305 305 306 307 306 307 306 306 306 307 308 310 312 312 311 312 313 313 315 316 313 311 313 312 310 313 314 312 312 311 311 311 309 307 305 304
292 292 294 294 295 295 296 297 298 299 299 300 301 300 298 297 300 306 306 297 294 296 296 297 298 297 297 298 299 298 297 298 298 297 297 298 298 299 301 301 301 302 303 303 303 302 301 302 302 304 306 306 306 306 306 307 306 306 307 307 307 308 308 309 311 311 311 311 311 313 314 314 313 312 314 315 312 311 311 311 311 310 310 309 307 304 303 303
291 292 294 295 296 296 297 299 299 300 300 300 300 298 296 296 303 308 299 293 295 297 298 298 298 297 297 297 298 297 297 298 298 297 297 297 298 299 300 301 300 300 301 301 300 299 301 304 303 304 306 304 306 308 307 307 306 306 307 308 308 309 309 309 310 310 310 309 309 312 314 314 314 314 314 316 313 310 309 308 309 308 308 306 304 304 305 305
291 293 295 297 298 299 299 300 300 300 300 300 298 296 298 300 301 300 295 294 296 296 297 298 297 298 297 297 297 296 296 299 297 296 296 297 298 299 299 301 300 299 299 298 298 298 300 302 300 303 305 301 302 305 303 305 307 305 307 308 308 310 310 310 311 310 309 309 309 312 314 314 313 312 312 312 311 310 308 306 306 307 306 305 305 306 306 307
291 295 298 298 298 298 300 300 300 301 300 300 297 297 304 307 300 296 297 298 297 295 296 297 297 298 297 298 297 296 296 298 297 296 296 296 298 299 299 301 300 300 299 298 298 298 299 302 300 301 303 300 300 302 300 301 303 302 305 307 307 310 310 310 311 310 309 310 309 311 313 313 313 313 312 311 310 309 307 305 305 306 305 305 305 306 306 307
293 298 298 297 297 297 298 299 300 300 299 298 298 300 304 303 296 295 297 298 297 296 297 298 298 297 298 297 296 296 298 299 297 296 297 297 299 299 299 300 300 299 299 298 298 298 299 302 301 299 300 299 299 301 298 299 300 301 305 307 307 309 309 309 309 309 310 310 309 311 311 312 315 316 312 308 307 307 304 304 304 304 304 305 305 305 305 305
295 299 298 297 297 295 297 298 299 300 298 298 302 303 301 299 295 295 298 298 297 297 298 298 297 298 299 298 297 296 297 299 299 297 297 297 298 299 299 300 300 299 299 299 299 298 298 299 300 298 299 298 298 299 298 300 303 305 307 308 307 306 304 304 307 308 308 309 309 312 313 312 314 314 308 305 307 305 303 303 302 302 303 303 303 303 303 303
296 299 298 297 296 295 296 297 297 298 297 300 306 304 299 298 296 295 299 298 297 298 298 298 298 298 299 298 298 298 296 298 299 297 298 297 296 298 299 299 300 299 299 299 299 299 299 299 299 299 300 300 299 298 298 301 303 304 306 306 304 303 303 305 307 307 308 309 309 311 312 311 310 309 307 307 307 306 304 302 300 301 301 300 301 301 302 302
296 299 299 298 297 296 295 296 297 296 297 302 307 302 296 296 295 296 300 298 297 298 298 298 298 298 298 298 298 298 297 299 298 297 298 298 297 297 298 299 299 298 298 298 299 299 299 300 300 299 301 300 299 299 300 302 302 301 302 303 302 303 305 307 307 308 308 309 309 310 311 310 309 309 309 310 308 305 305 302 300 300 299 299 300 300 301 301
293 297 300 299 298 296 295 297 296 295 299 303 303 299 296 296 295 297 299 298 297 298 299 298 298 298 297 298 298 297 297 298 297 297 298 297 297 297 297 299 299 297 297 298 299 299 298 299 299 298 299 299 299 300 300 301 302 300 300 302 303 304 305 304 305 307 307 305 306 309 309 308 309 310 310 309 307 305 304 302 300 299 298 298 299 300 300 300
293 297 300 299 299 297 295 296 295 296 302 303 299 297 296 296 297 297 297 297 297 299 299 299 298 298 297 297 298 297 297 297 297 298 297 296 297 297 296 298 298 297 298 297 299 299 298 299 299 298 298 299 299 300 299 299 300 301 301 301 302 304 304 304 304 305 305 303 303 303 303 303 308 311 308 304 304 304 303 301 299 299 298 298 298 299 300 299
292 297 299 296 297 297 295 295 296 299 302 298 295 296 295 296 299 298 297 297 298 298 298 299 298 297 298 298 297 297 297 297 298 297 297 297 297 298 297 297 296 297 298 298 299 299 299 298 298 299 299 299 299 298 298 298 298 299 301 301 300 301 302 302 303 304 304 301 300 300 300 300 303 306 304 302 303 303 302 300 298 298 298 297 298 298 299 299
291 298 299 295 296 296 295 296 295 296 297 294 294 296 296 297 299 299 298 297 297 297 296 297 298 297 297 297 297 298 297 297 298 298 298 297 296 297 297 295 296 296 296 298 299 299 299 298 299 300 299 299 298 297 298 298 297 298 300 301 300 300 301 300 300 301 301 299 298 299 300 299 299 301 302 303 303 301 300 298 297 297 297 297 298 298 298 298
294 300 298 295 297 296 296 297 292 291 295 296 296 296 297 298 298 299 298 296 296 297 296 297 298 298 298 297 297 299 298 297 298 298 298 298 297 297 296 295 295 295 295 296 298 298 299 299 299 300 299 299 298 298 298 297 296 297 299 301 301 302 302 300 298 299 298 298 299 299 300 299 297 299 302 303 301 298 297 297 296 296 296 297 297 297 297 297
297 298 295 295 297 296 298 299 294 292 296 295 294 294 294 296 297 298 297 296 295 295 296 299 298 296 297 298 297 298 298 297 298 299 298 298 298 297 296 294 294 294 294 295 297 298 298 298 299 299 299 299 299 299 298 297 297 298 299 301 301 301 301 300 299 299 298 298 299 299 299 299 297 299 301 300 298 296 296 296 296 296 296 296 297 297 297 297
293 293 293 295 296 297 299 299 296 294 295 295 295 294 293 294 296 297 297 297 295 294 296 298 297 296 296 297 297 297 298 298 297 298 297 296 297 296 295 294 292 292 293 294 295 296 296 297 299 299 299 298 298 299 300 299 299 299 298 299 299 299 299 299 298 298 299 299 298 299 298 297 296 298 298 297 296 296 296 296 296 296 296 296 296 296 297 297
291 291 292 293 293 295 296 295 295 295 295 295 294 293 293 295 296 296 295 295 294 294 296 297 297 296 295 295 296 296 296 297 297 296 295 295 295 294 293 292 291 291 292 293 294 296 296 297 299 299 299 298 297 297 298 298 298 297 297 298 299 298 298 298 298 298 298 298 297 298 297 296 296 296 296 296 296 296 296 296 296 296 296 296 296 297 297 297
294 295 294 294 293 294 294 292 294 296 294 294 293 292 292 294 294 293 293 293 293 294 295 296 297 296 294 293 293 292 293 296 296 295 293 292 293 294 293 291 291 292 292 293 295 297 298 299 299 299 299 299 298 297 297 297 298 298 298 298 298 298 297 298 298 298 298 298 298 297 297 296 296 296 296 296 296 296 296 296 296 296 296 296 296 297 297 297
293 294 293 293 294 294 294 292 293 295 293 292 292 292 292 293 292 291 292 292 293 294 295 295 295 294 292 291 290 291 292 292 292 292 291 291 292 293 292 291 292 293 293 295 297 297 296 296 296 296 297 297 297 297 297 297 298 298 298 298 298 298 297 298 298 298 297 298 298 297 297 297 297 296 296 296 296 296 296 295 296 296 296 296 296 297 297 297
289 291 290 290 292 294 294 292 293 294 293 291 291 291 292 293 292 292 293 293 293 293 294 294 293 291 291 290 290 292 291 290 290 291 291 291 291 290 291 292 293 293 293 294 296 295 294 293 293 293 293 294 294 294 295 295 295 296 296 296 296 296 296 297 297 297 297 297 297 297 297 297 296 296 296 296 296 296 296 296 296 296 296 296 296 297 297 297
289 290 289 288 291 294 292 291 291 293 293 292 292 292 293 293 293 293 292 292 293 294 292 292 293 291 291 290 289 291 291 290 290 290 290 290 290 289 290 292 292 293 293 293 293 292 292 292 292 292 292 292 292 293 293 293 293 293 293 293 293 294 295 295 296 296 296 297 297 296 296 296 296 296 296 296 296 296 295 296 295 295 296 296 297 297 297 297
291 292 291 290 292 292 291 291 292 293 292 292 292 292 292 293 293 292 292 292 293 293 292 292 293 291 290 290 290 290 290 289 290 290 289 289 290 289 290 291 291 292 292 290 291 291 291 291 292 291 291 291 291 291 292 291 291 291 291 292 292 293 294 294 294 295 295 296 296 296 296 296 296 296 296 296 296 295 295 295 295 295 295 296 296 296 296 296
291 291 291 293 294 291 290 291 291 292 293 292 292 292 292 294 293 291 291 292 291 292 292 292 292 291 290 290 289 289 290 290 290 290 290 290 290 290 290 290 291 291 290 290 291 292 291 291 291 291 291 291 290 291 291 291 291 291 291 291 292 292 293 293 293 294 295 296 296 296 296 296 296 296 296 296 295 295 295 295 295 295 295 295 296 295 296 296
291 291 289 292 294 291 290 290 290 291 294 293 292 292 292 294 293 290 291 292 290 291 292 291 291 290 290 290 290 290 291 291 291 290 290 290 289 289 289 290 290 290 290 290 291 291 291 290 291 291 291 291 291 291 291 292 291 291 293 294 294 293 293 293 293 294 295 296 296 296 296 296 296 296 296 295 295 295 295 294 294 294 294 295 295 295 295 295
Wind_Speed
21 21 21 21 22 22 22 23 23 23 23 24 24 24 24 24 24 24 24 25 26 26 26 26 25 26 26 26 27 27 30 22 10 18 21 17 23 24 25 27 27 30 28 23 24 23 18 18 21 23 17 5 1 1 1 1 2 2 2 3 5 5 5 6 6 6 3 3 2 3 3 1 4 4 3 2 1 3 1 2 4 4 3 2 2 2 13 24
21 21 22 22 22 22 23 23 23 23 23 23 24 23 24 24 24 24 24 25 25 26 26 26 27 26 27 27 27 29 28 18 7 12 20 24 26 26 26 27 27 28 28 24 22 19 12 11 15 16 9 3 3 1 1 1 2 3 3 3 6 5 5 5 7 5 4 4 3 3 2 1 3 3 4 3 5 4 2 5 4 6 7 3 2 10 19 23
21 22 22 22 23 23 23 23 23 23 23 23 23 23 23 23 24 25 25 25 25 26 26 26 27 26 27 27 29 30 25 13 4 8 24 29 26 27 26 25 25 25 26 22 18 17 12 11 13 9 4 3 3 2 2 1 2 2 3 4 6 5 4 4 5 6 6 4 3 5 2 1 4 3 2 3 6 3 3 6 3 6 10 6 3 10 17 20
21 22 23 23 23 24 24 24 24 23 23 23 23 23 23 24 24 24 25 25 25 25 25 25 26 26 26 27 30 28 17 6 3 11 27 28 26 28 25 22 23 22 24 21 16 17 17 13 10 3 2 4 3 3 2 2 1 1 3 5 5 3 4 5 5 6 6 4 3 3 3 5 5 3 1 2 5 6 5 7 7 9 11 7 5 8 14 16
22 23 23 24 24 24 24 24 24 23 23 23 23 23 23 24 24 24 24 24 25 24 24 24 24 25 25 29 30 22 10 3 5 19 26 24 24 26 25 22 21 21 21 20 17 19 19 15 9 4 3 3 4 4 3 3 3 2 4 4 3 1 3 6 5 5 4 2 2 2 3 6 3 2 3 5 5 6 6 5 6 9 9 5 6 7 10 12
22 23 24 24 24 25 25 25 25 24 24 23 24 24 24 24 24 24 23 24 23 22 22 22 23 23 25 30 26 16 7 2 11 24 23 22 23 25 26 23 21 20 18 19 20 19 15 11 7 5 4 3 3 3 4 5 4 3 4 3 4 1 3 6 5 5 6 5 4 2 3 3 5 6 4 7 8 8 7 4 3 7 7 6 8 7 8 11
22 23 24 25 25 25 25 25 25 25 24 24 24 24 25 25 24 24 24 24 22 21 21 20 22 22 26 29 19 10 7 3 18 26 23 22 22 25 28 25 21 20 18 19 19 13 8 7 7 4 3 3 3 4 6 7 4 3 4 5 6 4 4 6 6 7 5 6 7 4 4 3 6 8 2 5 8 9 9 4 4 7 5 6 9 10 11 12
22 23 24 25 26 26 26 26 26 25 25 25 25 25 26 26 25 25 24 23 21 20 19 19 20 20 25 25 12 5 5 9 23 27 24 22 23 29 30 25 23 22 18 15 12 7 4 6 6 4 3 4 4 4 6 8 5 3 3 6 6 5 6 7 9 9 6 6 6 5 6 7 9 5 5 8 8 9 10 5 5 3 2 6 8 12 13 12
22 23 24 25 26 27 26 26 26 26 26 27 26 27 27 27 26 25 23 21 20 18 17 18 17 17 21 18 6 4 6 17 25 26 27 24 26 30 28 23 22 22 18 15 11 7 4 3 3 3 2 5 4 4 5 5 3 1 3 6 7 8 8 9 9 8 7 4 2 5 7 9 7 3 7 11 10 10 8 6 5 1 4 6 7 10 12 14
22 23 24 25 26 27 27 27 27 26 28 27 27 28 30 29 26 24 22 20 18 15 14 14 13 15 16 12 5 4 12 24 25 25 27 26 27 28 24 22 20 19 16 15 12 7 3 1 3 3 4 5 3 4 3 1 3 5 7 8 8 10 8 6 8 8 7 5 4 6 10 10 5 4 6 7 7 6 4 5 3 2 5 6 6 7 8 12
22 23 24 25 25 26 27 27 27 28 28 27 27 30 32 30 25 22 20 18 16 12 11 11 11 13 12 8 6 5 17 26 25 27 27 26 27 26 23 20 16 16 14 12 11 8 3 4 4 3 2 2 4 5 4 3 4 8 10 10 9 9 8 6 7 8 5 5 6 6 9 10 3 5 7 6 7 5 4 7 4 3 6 6 6 6 6 8
21 23 24 25 26 26 28 27 28 28 27 27 29 31 32 29 23 20 17 16 15 11 9 10 11 12 10 5 4 7 21 26 26 28 26 26 28 26 22 19 15 15 13 9 10 9 7 6 3 1 2 3 6 5 4 3 6 8 6 8 10 9 9 7 6 6 5 4 4 4 7 11 7 8 8 7 10 8 7 9 7 6 6 6 6 6 6 8
21 23 24 25 27 28 29 28 29 28 27 28 29 31 31 25 18 16 16 15 14 11 8 10 12 12 8 2 1 15 25 27 27 26 26 27 28 26 22 19 18 16 12 9 13 11 8 7 3 3 2 2 4 4 5 5 5 6 3 3 6 7 7 6 3 3 6 5 4 4 8 11 8 9 9 8 8 7 7 9 8 7 6 6 6 6 7 8
21 23 24 26 27 28 29 28 29 27 28 29 29 31 29 20 12 13 17 15 12 8 6 9 11 9 5 1 3 20 28 26 27 27 27 29 28 28 26 22 20 18 12 11 15 13 8 7 5 2 1 2 3 5 7 6 3 5 5 3 2 2 5 7 4 1 3 5 6 6 9 11 4 5 8 6 7 7 8 9 8 8 7 7 6 6 8 8
21 23 25 26 26 28 29 28 27 27 29 29 30 31 24 13 9 14 18 13 10 11 6 6 8 6 2 1 7 22 29 26 27 29 28 29 26 23 25 26 21 17 15 15 16 15 11 8 4 1 2 2 2 4 5 4 2 3 5 5 2 2 4 9 7 3 3 5 3 8 8 9 4 6 7 3 1 3 6 8 7 7 7 7 7 7 8 8
21 23 24 25 26 27 29 28 26 27 29 30 32 27 16 8 6 15 20 8 7 13 10 7 7 3 4 2 13 22 26 25 26 27 25 27 24 18 24 25 17 17 21 19 14 12 10 5 2 2 0 3 3 1 3 4 4 2 2 5 4 3 3 7 7 1 1 4 3 5 6 6 3 5 7 5 5 4 5 7 7 7 7 7 6 5 6 7
21 23 24 24 25 27 29 28 25 27 30 31 32 21 8 5 3 14 21 6 2 8 9 12 9 0 3 10 16 15 18 25 27 24 24 27 24 20 21 15 10 16 21 16 9 5 4 1 1 0 2 1 1 2 2 4 4 2 2 3 3 3 4 4 5 6 7 5 4 6 7 9 6 8 11 9 6 5 6 8 8 8 6 6 6 5 5 6
21 23 24 24 24 26 28 27 25 28 29 31 28 12 5 6 1 11 24 13 3 4 5 14 13 2 2 14 14 13 21 28 26 20 23 27 25 23 17 7 7 12 11 8 6 5 3 1 1 1 1 0 1 1 3 5 1 2 3 2 4 4 4 4 5 6 10 9 7 8 10 12 10 7 9 11 10 9 9 9 9 8 6 6 6 6 6 6
21 23 24 24 24 26 27 25 25 26 27 30 21 7 9 11 1 7 26 22 8 3 2 7 8 3 4 12 13 18 25 24 18 16 21 26 25 23 15 8 7 6 5 4 5 5 2 2 3 1 3 1 1 3 6 7 5 6 6 4 6 6 5 5 5 5 7 10 11 9 10 12 11 9 7 9 10 10 11 10 9 9 7 7 6 6 7 7
21 23 24 24 23 24 26 23 23 24 25 29 21 11 11 11 4 5 17 15 5 2 1 2 1 1 4 9 13 21 23 15 8 12 21 24 22 18 10 8 6 4 5 4 5 4 2 2 2 3 3 2 3 4 5 7 7 7 6 7 9 7 7 7 5 7 4 5 9 8 11 14 13 11 8 8 10 9 11 10 10 10 9 7 7 7 7 8
21 24 23 23 22 23 25 20 20 21 21 27 27 16 5 4 4 3 7 7 1 2 2 4 3 4 8 12 15 16 12 7 7 12 22 23 18 12 6 6 7 5 6 5 5 3 3 2 3 4 3 4 5 6 5 6 5 5 5 7 9 7 8 8 6 8 5 4 7 7 11 15 14 11 8 7 9 10 10 10 11 13 12 9 8 8 8 7
21 23 23 23 21 22 23 17 16 17 17 26 27 16 5 3 2 1 2 3 4 4 3 5 3 4 10 12 11 10 4 4 9 12 19 20 13 8 5 5 6 5 6 5 4 4 4 2 3 6 5 5 6 6 6 5 5 5 4 6 8 6 6 6 4 5 4 2 6 7 9 14 14 12 11 10 10 10 9 9 11 12 13 11 9 8 7 7
21 22 22 22 20 21 20 13 13 15 16 23 23 13 7 7 2 2 2 1 5 5 3 4 2 3 10 8 8 10 5 3 5 11 18 17 9 6 4 5 5 5 6 6 5 4 3 3 6 9 7 5 6 5 4 5 3 3 4 5 7 6 4 4 2 4 6 4 6 9 9 13 13 9 10 10 10 10 10 11 11 10 11 13 12 9 7 8
20 21 21 21 19 20 17 9 12 16 13 16 18 12 7 6 3 2 2 2 3 5 2 2 1 2 5 8 13 10 2 2 2 10 17 13 8 6 3 3 5 5 5 7 7 5 5 7 7 8 5 3 5 4 3 4 3 4 6 5 7 7 6 7 5 6 8 7 7 8 8 10 9 6 8 7 7 8 7 8 10 8 9 10 11 10 8 8
20 20 20 20 19 20 14 5 12 19 8 7 13 13 9 6 4 2 2 3 2 5 4 2 1 3 7 13 19 9 1 2 3 8 13 11 7 4 3 3 2 5 8 9 7 4 5 5 4 6 5 3 3 4 3 3 4 4 4 5 7 7 7 8 7 5 5 5 4 4 4 7 5 3 6 5 4 6 4 5 8 8 7 7 8 9 9 8
20 19 19 19 19 20 12 2 12 18 5 4 11 14 11 7 4 2 2 4 3 4 5 4 1 6 11 13 16 8 2 4 11 12 14 14 8 0 2 3 1 3 6 8 5 2 3 4 4 5 5 5 4 4 3 2 3 3 0 2 3 3 5 6 5 3 2 4 3 4 3 8 6 3 5 5 5 8 6 6 8 7 7 6 6 8 8 8
21 19 18 18 18 19 10 4 13 13 3 4 12 13 12 8 4 1 2 5 4 2 3 4 3 7 11 11 13 6 2 8 14 13 16 18 9 1 2 4 2 4 3 4 4 1 4 7 6 4 4 5 5 4 2 3 2 3 2 4 5 5 5 5 4 3 2 4 4 2 3 7 8 5 4 5 6 8 8 9 9 8 8 8 7 7 8 9
21 19 17 16 16 14 8 8 13 9 4 9 13 13 12 7 2 1 5 5 3 2 1 3 5 6 9 10 9 4 1 7 5 9 21 19 7 2 3 3 3 6 4 2 3 4 3 5 6 5 5 4 3 4 4 2 2 4 2 4 4 5 5 4 3 3 3 4 4 3 4 5 8 5 2 3 4 6 7 8 9 9 9 8 8 8 8 8
21 18 16 15 13 9 7 9 9 8 10 13 13 13 10 3 1 4 6 2 2 3 1 2 6 7 8 9 6 4 3 4 2 8 18 13 6 4 1 3 3 6 4 2 1 5 3 3 3 2 2 2 4 7 5 2 3 4 5 6 5 5 6 5 4 3 3 4 4 4 4 4 9 6 3 3 2 4 7 7 8 8 8 8 8 8 7 8
21 17 15 14 11 8 7 7 7 10 14 14 13 13 7 1 3 6 5 0 1 3 2 3 5 5 9 9 5 7 6 3 2 6 7 5 8 7 1 1 2 2 3 1 2 5 7 5 1 1 1 3 5 7 5 5 5 4 6 5 6 5 3 2 2 3 2 3 5 6 8 7 7 4 1 2 1 3 5 6 7 7 7 8 6 7 7 7
20 16 13 10 9 9 8 7 9 12 14 13 13 10 3 2 4 6 2 2 1 3 3 5 4 5 10 7 3 8 8 4 5 7 6 5 7 8 6 4 3 2 4 4 4 7 8 5 2 2 2 2 4 5 4 3 1 2 4 3 4 4 1 2 2 1 1 4 6 7 8 9 7 3 1 3 4 4 4 5 7 8 9 9 7 7 7 7
19 14 9 7 8 9 8 9 12 13 13 13 11 6 3 2 4 2 2 4 2 3 2 3 5 7 7 3 2 7 6 4 5 6 5 5 5 6 6 5 4 5 7 6 7 9 7 3 5 5 2 6 7 5 6 5 3 3 4 3 4 3 3 3 2 1 2 4 5 4 3 5 8 9 9 10 9 8 5 4 6 8 9 9 8 8 7 6
17 9 7 8 10 10 9 9 11 11 13 13 7 4 6 5 2 2 3 3 1 3 2 1 5 7 5 4 4 6 3 3 6 7 4 3 4 5 4 4 5 3 2 4 6 8 5 4 7 7 4 6 7 5 8 6 4 6 4 3 3 2 3 2 2 1 2 5 4 2 1 2 5 8 9 8 7 5 5 5 5 5 6 7 7 7 7 7
12 7 8 10 12 13 11 10 10 10 14 11 4 4 6 4 1 2 2 3 3 3 2 2 5 6 3 3 3 5 3 3 6 8 5 4 5 4 4 5 7 4 1 3 3 4 4 5 5 6 5 6 5 4 4 5 5 5 3 3 3 2 3 3 2 3 3 4 4 2 1 1 4 4 0 3 3 4 5 5 4 5 6 6 6 7 8 9
8 5 7 10 13 14 13 11 10 11 13 8 5 6 4 1 2 1 2 4 3 2 4 4 3 3 3 3 3 4 2 2 6 7 4 4 3 3 4 4 6 6 4 4 2 1 2 5 4 5 4 2 6 8 4 2 3 3 2 1 3 3 2 2 4 5 4 4 3 1 1 2 4 5 4 6 5 6 7 7 7 8 9 9 9 10 10 9
4 3 6 10 14 14 15 13 11 12 9 6 6 5 2 3 3 2 2 2 1 2 5 6 3 2 3 4 3 5 2 2 4 5 3 4 2 3 3 2 4 6 5 4 3 2 3 5 7 10 5 1 5 10 4 1 3 4 3 3 5 3 1 2 5 5 2 3 2 0 2 3 4 6 6 8 8 10 11 11 11 10 11 12 11 11 10 9
5 3 5 10 14 15 15 13 12 10 6 6 6 2 2 3 3 4 2 0 1 1 3 3 2 2 3 3 3 5 4 2 3 4 3 4 2 3 4 2 2 4 3 1 1 1 3 6 7 6 4 4 6 8 3 2 2 2 2 5 7 2 1 1 3 3 2 2 2 1 2 4 3 3 6 10 11 12 12 12 12 13 14 14 12 11 11 10
5 3 4 8 11 13 15 13 12 8 5 5 5 3 1 1 2 3 1 0 1 2 3 1 2 1 2 2 3 4 5 4 4 3 2 2 1 2 2 2 2 4 4 1 0 1 2 5 5 0 3 9 7 6 4 3 4 2 1 5 3 2 2 4 2 3 4 3 4 4 4 4 2 3 5 10 12 13 12 12 14 16 14 12 12 12 12 11
4 2 3 7 10 13 16 12 9 6 6 5 3 1 1 2 2 3 1 1 0 2 1 2 1 1 2 2 3 4 4 4 4 3 1 1 1 1 1 1 4 7 6 3 1 1 2 3 4 1 5 9 7 5 5 6 6 4 2 3 3 1 2 2 2 2 3 3 4 6 6 4 3 2 4 10 12 10 9 11 14 16 15 12 10 10 10 10
4 2 1 8 12 13 14 10 6 6 5 3 3 2 1 2 3 2 1 2 0 1 1 2 1 1 2 2 3 3 3 5 4 2 1 0 2 3 1 2 5 8 8 4 2 1 1 1 4 4 6 5 4 3 3 5 5 3 3 5 4 2 1 1 2 2 1 2 3 4 5 6 5 2 6 11 10 5 6 10 13 15 17 15 12 11 10 9
4 3 2 11 15 12 8 7 6 4 3 2 2 1 1 1 2 3 3 2 1 0 2 0 1 1 1 2 3 2 3 5 4 1 2 1 0 2 2 5 5 7 6 5 3 1 1 1 4 7 6 3 5 6 4 4 3 2 0 3 3 3 2 3 2 1 1 0 2 3 5 9 8 3 4 8 6 6 9 12 14 15 16 16 13 13 12 11
4 2 3 11 15 10 7 5 2 2 2 1 1 1 2 1 1 2 3 3 2 1 3 1 1 1 2 1 2 2 3 4 4 1 2 2 2 2 2 7 7 5 4 3 3 1 1 2 4 7 5 5 11 9 1 1 2 2 0 3 2 2 3 2 3 3 3 1 2 2 3 10 12 4 2 6 7 11 13 12 12 13 13 14 14 14 13 12
3 1 3 11 13 8 6 4 3 3 1 2 1 1 2 1 1 1 2 2 2 1 2 2 1 1 1 1 0 1 3 3 4 2 2 2 2 3 2 7 8 6 4 3 3 2 2 2 2 6 5 5 9 6 4 2 3 3 2 1 2 1 2 3 2 4 4 2 2 2 4 10 11 2 1 7 13 15 14 10 10 11 11 12 12 13 12 12
1 2 2 11 13 5 4 3 1 2 1 3 3 3 3 0 1 1 1 2 1 1 0 1 2 1 1 2 1 1 3 2 2 2 2 1 2 4 5 8 9 6 3 2 3 3 3 2 2 6 6 4 4 6 5 5 3 1 3 2 2 1 0 1 1 2 3 3 3 3 5 9 9 5 6 12 16 17 15 11 9 10 11 12 12 12 11 12
1 0 2 8 13 8 4 3 3 2 1 2 3 4 4 2 2 1 1 3 1 2 2 2 1 1 1 3 2 1 2 1 0 3 4 2 4 5 6 10 11 6 5 9 9 4 2 3 3 4 6 5 6 5 5 6 5 3 3 2 3 3 1 1 2 3 4 4 4 5 7 12 16 17 17 16 13 14 17 16 12 10 11 13 13 13 12 11
2 2 2 5 8 7 2 1 2 3 0 1 3 2 1 2 3 2 1 2 1 1 1 1 1 1 2 4 2 2 3 1 1 2 4 4 4 3 5 10 10 8 11 14 10 4 1 2 4 5 7 7 8 9 9 9 10 10 10 9 8 6 5 4 3 4 5 5 7 10 11 15 21 21 20 20 16 14 16 18 16 13 13 14 14 14 14 12
2 1 1 2 3 3 3 3 3 3 1 1 0 1 1 1 3 3 1 1 1 1 0 1 1 2 2 4 3 3 4 3 3 3 4 4 3 4 7 8 7 8 10 10 5 2 1 2 4 8 11 11 12 14 14 13 13 15 16 15 13 9 8 8 8 10 7 5 10 12 11 15 21 20 19 21 20 16 15 17 17 15 13 13 14 15 17 16
2 2 2 1 0 0 1 2 1 3 0 1 1 1 0 1 2 1 2 3 3 2 1 1 2 3 2 2 1 2 4 5 5 4 3 3 3 5 7 6 6 6 6 5 3 3 1 4 5 8 11 12 12 13 14 13 14 15 16 17 16 14 13 13 15 15 9 8 13 15 15 18 20 19 19 20 20 17 15 14 14 14 13 13 13 14 16 17
2 1 1 1 1 3 2 1 2 4 1 1 1 1 1 1 2 2 1 2 4 3 1 0 1 2 2 1 1 2 3 3 5 4 2 4 4 4 5 5 6 4 4 3 3 2 0 4 4 5 10 11 10 12 14 13 14 16 16 16 15 16 17 16 16 16 13 15 18 19 21 22 19 19 20 19 18 16 13 12 12 13 13 13 12 13 14 15
1 1 1 2 2 1 1 1 2 3 1 1 1 2 2 3 3 2 1 1 2 3 1 1 2 1 2 2 3 3 5 5 6 6 4 5 5 3 2 3 4 4 4 3 3 1 1 3 3 5 8 10 8 10 12 11 13 17 17 15 15 17 18 17 15 13 12 14 18 18 19 18 15 17 17 15 14 13 13 14 14 13 13 13 12 12 14 15
2 2 3 3 2 1 1 1 2 3 1 1 1 3 2 2 3 2 1 4 5 3 2 2 2 1 1 3 3 7 9 7 9 10 8 7 6 4 3 4 5 7 6 3 1 1 1 3 5 5 7 7 6 8 11 11 14 18 17 15 17 17 15 12 11 8 8 12 14 13 12 11 12 14 13 12 12 13 15 16 14 13 14 13 12 13 14 14
4 2 2 4 2 1 2 1 2 2 1 2 3 4 2 3 3 1 1 2 2 4 5 4 2 1 2 6 8 10 9 7 9 10 7 7 8 8 8 9 10 10 7 3 1 1 3 4 4 4 6 7 5 6 10 10 12 13 9 10 14 13 11 11 9 8 9 10 9 9 9 10 12 13 12 13 13 14 15 14 12 14 15 12 11 12 14 14
Wind_Direction
16 14 12 9 6 4 2 1 359 357 357 355 354 353 351 350 348 347 345 344 343 343 343 342 342 341 340 339 340 339 340 351 30 40 32 5 350 347 344 346 348 352 354 351 353 355 350 345 343 345 345 352 64 301 228 176 133 121 130 191 219 203 208 190 188 202 191 257 288 5 8 325 302 316 318 1 346 283 287 280 276 289 292 243 303 74 143 150
16 13 11 9 6 3 0 359 357 356 355 353 352 351 349 348 347 345 343 343 342 342 341 340 341 339 340 339 338 339 340 348 35 48 16 356 351 348 343 344 346 349 356 1 0 356 348 331 329 339 350 355 337 320 285 223 170 173 151 210 228 198 203 191 183 201 210 242 273 307 297 206 246 305 345 320 308 336 311 280 306 294 278 295 60 132 147 151
13 11 10 8 5 2 359 358 356 354 352 351 350 349 348 346 345 344 342 342 341 340 340 340 340 340 340 338 338 338 335 346 54 27 360 355 354 351 347 344 344 347 354 1 3 358 349 322 316 328 2 337 319 336 319 243 200 196 168 229 239 212 234 233 201 208 221 237 289 295 288 205 243 269 353 297 302 319 229 252 269 266 258 247 161 146 153 156
11 9 8 6 4 1 358 356 355 353 351 349 348 347 345 345 344 343 341 341 341 340 340 340 339 341 339 338 341 337 332 12 58 356 357 358 357 356 355 350 347 347 349 354 359 3 4 350 330 337 26 327 315 350 313 250 251 208 190 223 236 219 254 255 237 240 241 225 230 257 310 299 257 193 211 251 294 297 248 237 225 231 244 228 187 169 164 164
9 7 5 4 2 359 357 355 353 352 351 349 347 345 343 344 343 342 341 340 340 340 340 340 340 340 338 339 343 337 337 75 1 353 357 359 0 360 0 358 354 351 347 350 355 5 12 6 359 37 38 329 328 347 292 302 345 272 234 231 240 221 270 269 255 269 283 256 249 265 271 282 286 159 203 206 230 256 240 245 232 233 249 214 177 190 179 172
8 5 4 3 1 358 357 355 353 352 350 348 346 343 342 342 341 341 340 338 338 339 340 341 342 340 335 338 346 354 23 85 344 351 350 352 358 358 359 359 357 353 347 353 4 13 13 6 13 26 6 333 336 334 296 325 359 291 280 293 299 320 287 287 305 322 343 348 305 282 256 292 320 287 222 199 223 236 240 269 281 264 262 191 162 186 196 188
6 4 3 1 359 358 356 355 353 351 349 347 344 341 340 339 339 338 337 338 336 337 340 342 344 338 333 341 354 20 61 28 338 344 343 343 348 351 350 351 357 356 356 5 12 12 7 15 20 6 352 344 336 325 308 318 314 249 281 311 320 331 293 286 308 317 328 309 278 279 313 299 271 278 260 207 231 248 255 278 287 275 255 191 165 181 198 201
4 2 1 359 359 357 355 354 352 350 348 345 342 340 340 339 337 336 336 335 333 336 340 343 344 334 333 347 4 36 53 346 337 342 345 340 338 341 340 344 355 357 4 15 14 5 8 26 12 6 13 341 332 321 318 328 313 229 273 308 318 318 299 294 302 304 295 278 265 273 286 251 232 263 294 246 237 257 262 267 289 297 194 202 196 190 192 201
2 0 358 357 358 357 355 353 351 349 346 342 341 342 342 340 336 335 333 331 333 336 339 344 341 329 335 349 18 70 10 345 343 345 347 343 336 334 336 345 353 354 0 2 4 14 22 25 2 9 331 301 307 305 324 344 313 288 315 303 309 305 300 299 294 296 298 288 274 280 271 256 238 257 284 257 239 253 267 274 279 228 178 212 219 208 195 196
359 358 357 355 356 356 354 352 350 348 344 341 343 345 345 342 337 334 331 330 334 337 343 348 337 330 342 357 34 56 352 346 348 348 346 343 337 336 341 349 348 350 351 345 349 6 17 294 276 287 256 262 278 292 303 240 269 324 321 300 297 292 285 284 279 287 304 294 245 256 269 269 244 212 256 268 250 238 262 285 274 183 217 222 224 231 217 207
357 356 355 354 355 355 353 351 349 347 343 343 345 346 346 343 339 335 333 335 337 339 342 343 343 344 352 17 60 28 345 347 349 351 352 348 344 342 346 348 345 344 340 332 332 335 319 267 275 284 241 263 304 297 261 229 303 321 317 311 302 294 285 260 263 275 289 284 233 210 264 269 226 217 237 258 263 237 245 275 267 206 232 234 224 229 228 231
355 355 354 354 356 357 355 351 349 346 342 345 346 345 346 343 340 341 344 345 340 341 335 333 345 347 352 36 80 358 347 351 352 355 359 353 348 348 350 350 347 340 330 313 308 324 319 292 304 279 262 316 316 299 266 285 319 307 311 314 306 315 302 261 251 243 202 246 226 164 278 266 232 233 224 223 244 240 243 257 253 232 230 233 226 219 220 232
354 353 353 355 358 358 356 351 348 345 342 346 345 345 346 342 346 355 356 352 340 334 320 322 333 338 359 60 15 355 353 354 356 359 360 355 352 353 355 349 344 342 334 302 293 308 314 292 234 200 268 312 297 291 305 327 325 303 302 277 300 329 306 277 289 250 206 219 171 133 278 263 238 240 229 221 233 235 240 243 244 239 231 228 221 216 223 226
353 352 352 355 358 358 357 352 349 345 344 346 344 346 345 341 359 7 1 1 354 342 310 316 329 332 359 175 340 359 355 356 2 1 357 353 351 353 355 348 342 344 340 316 304 302 302 287 242 227 273 208 266 312 327 335 342 318 300 262 304 302 280 302 330 132 207 238 155 145 258 261 255 265 256 243 230 226 238 244 239 233 230 229 218 215 225 225
352 351 351 355 356 356 357 353 349 346 345 346 346 346 343 343 13 11 6 17 30 27 13 347 342 345 32 213 344 356 354 357 360 358 357 353 349 348 347 342 337 341 337 322 309 295 287 282 244 227 287 258 344 335 323 324 339 336 288 288 332 234 276 319 314 164 198 285 167 164 242 274 269 259 272 293 283 245 251 260 259 253 245 238 227 216 225 230
351 350 350 355 355 356 357 353 350 348 347 347 348 346 342 343 17 16 10 17 38 31 36 28 356 14 94 353 340 351 353 350 345 352 1 356 349 340 338 338 337 342 338 329 316 291 278 260 209 167 312 351 28 358 320 307 308 349 258 270 293 277 301 323 312 297 29 332 291 219 242 279 278 278 305 353 27 4 305 291 282 275 266 257 255 237 233 243
351 350 351 354 354 355 357 354 352 351 350 350 349 348 354 353 3 19 16 17 354 11 35 24 359 157 94 360 349 348 343 337 335 346 359 357 351 340 338 338 332 334 334 339 351 331 306 243 254 175 90 25 84 80 320 268 271 301 268 256 269 287 295 302 306 329 11 23 317 294 272 270 287 317 323 329 350 343 304 292 281 274 271 267 272 269 256 247
351 350 351 354 354 355 358 356 355 355 353 351 351 357 37 17 335 16 19 31 8 336 28 12 7 84 344 345 341 325 323 326 329 339 351 356 352 343 344 327 305 323 332 352 14 6 356 1 358 10 24 345 108 75 259 254 273 291 291 298 299 308 295 292 289 312 354 358 319 307 286 281 295 311 316 316 319 312 292 287 284 277 269 264 263 263 259 247
350 350 351 353 354 355 358 358 359 359 356 355 0 44 50 23 42 6 14 27 47 28 12 347 10 100 284 314 311 316 323 324 329 339 349 355 348 343 352 342 320 342 4 5 356 356 354 357 28 349 320 301 230 228 242 267 287 280 294 305 295 302 290 279 277 293 346 339 308 299 289 290 298 299 303 301 299 297 291 290 290 284 272 262 255 249 251 252
348 349 350 351 352 355 359 1 2 4 3 6 20 53 41 18 16 348 0 16 72 67 333 248 5 155 285 303 306 324 333 336 337 340 349 354 345 340 354 354 354 35 26 354 327 342 29 353 319 268 267 233 245 247 256 284 286 282 294 292 285 289 287 282 277 280 310 315 288 289 294 292 292 295 293 286 288 289 289 291 290 287 280 264 254 251 251 249
346 347 348 350 350 353 359 2 4 10 14 22 38 55 48 8 19 351 338 340 285 13 297 248 253 242 279 293 304 329 344 341 324 334 350 353 350 350 353 359 10 13 358 331 297 334 42 339 297 313 292 246 262 273 285 304 305 296 281 278 281 275 279 285 277 273 275 267 269 286 298 290 290 296 291 284 285 282 280 285 287 286 285 277 259 252 249 251
345 345 345 347 348 351 357 2 6 12 22 33 49 69 77 55 63 257 334 325 303 336 299 290 287 251 295 300 311 343 358 328 322 331 350 354 2 9 343 4 22 345 330 338 331 0 18 294 293 336 325 281 275 275 286 289 282 285 278 278 280 281 290 279 259 283 301 269 282 312 309 289 287 288 282 272 266 267 263 261 268 276 283 284 273 262 253 253
344 344 344 345 346 348 354 1 5 14 33 44 54 68 51 35 44 274 21 41 295 319 328 338 355 296 325 331 338 351 360 351 321 324 347 358 2 359 344 358 2 332 338 1 0 356 341 282 299 318 320 312 290 283 296 291 277 259 263 275 274 288 311 277 265 328 318 288 281 304 304 288 284 278 271 260 249 253 254 251 255 260 268 274 278 280 270 258
344 345 344 343 344 346 351 356 4 15 40 53 47 43 30 19 15 317 22 91 303 306 311 317 273 294 332 335 337 349 1 333 305 320 343 3 353 339 6 355 343 344 348 345 336 323 290 274 296 315 328 334 294 295 294 270 279 250 243 255 263 277 285 280 310 329 308 290 279 295 296 283 282 272 265 260 247 250 260 267 267 266 266 273 286 288 277 265
344 343 343 345 344 345 351 357 3 9 28 61 36 22 19 19 5 339 38 73 338 304 324 324 275 330 331 337 340 343 197 309 320 315 333 358 351 325 353 356 355 347 337 332 325 306 277 270 317 334 331 336 295 305 305 257 273 263 247 260 263 277 282 283 305 319 308 299 291 318 306 282 295 300 275 294 305 279 300 306 280 279 282 281 287 285 278 269
343 342 343 347 345 346 356 13 353 358 17 61 16 3 6 8 346 337 69 62 358 310 341 344 1 351 344 345 336 334 96 337 325 333 346 354 349 271 347 339 350 334 328 329 321 276 287 309 354 338 330 345 329 313 330 345 301 271 238 349 326 335 310 299 311 303 279 289 323 24 339 290 300 301 271 290 306 290 303 303 281 285 287 274 269 274 280 276
344 343 345 348 346 348 356 339 341 353 36 359 349 349 352 352 332 280 67 43 0 318 341 322 328 357 351 341 333 350 66 314 321 346 357 347 336 95 353 326 340 328 318 340 342 335 323 331 354 11 7 353 331 312 343 46 328 275 60 20 351 339 312 302 310 289 269 303 324 329 274 281 289 283 262 268 289 298 301 294 289 291 286 281 276 271 274 276
343 342 347 347 343 345 343 328 335 352 4 335 338 343 342 345 330 134 80 62 339 331 26 301 319 345 344 338 353 51 267 308 338 342 340 341 340 37 349 303 311 309 306 47 345 320 320 329 352 18 11 340 294 287 306 10 287 274 331 340 314 292 267 247 255 271 289 309 303 243 213 263 279 284 337 326 311 308 294 281 279 279 282 289 287 282 287 295
343 344 348 344 341 344 340 329 331 341 340 334 338 339 334 347 65 61 72 99 297 334 211 316 337 335 341 342 2 46 337 349 73 310 329 349 354 355 322 257 305 317 315 131 268 300 297 296 327 30 7 301 275 285 282 223 239 287 321 313 292 266 242 217 204 231 270 277 274 246 187 238 281 285 323 354 345 287 274 269 268 269 278 287 291 304 321 327
345 347 347 343 342 352 350 344 346 338 332 334 336 333 330 41 67 55 46 333 310 328 285 4 351 324 346 352 347 358 360 354 311 312 336 357 336 341 32 264 347 357 317 262 236 280 292 299 304 116 261 255 275 295 281 230 237 317 331 307 294 277 237 210 207 196 236 263 267 246 194 207 273 295 210 231 243 256 266 281 287 293 302 305 318 336 338 334
347 348 347 347 351 359 356 351 349 335 328 334 336 333 343 36 59 84 68 290 307 317 340 3 343 343 357 3 341 340 349 328 328 356 358 343 345 359 21 10 359 18 351 345 335 324 330 347 359 289 294 339 317 305 313 292 267 352 312 307 314 297 32 16 348 100 204 248 250 243 204 204 243 283 256 253 270 268 255 273 295 314 325 329 340 342 336 337
350 350 355 6 12 11 360 342 338 333 329 337 340 355 76 38 22 90 272 316 330 309 352 344 326 342 344 355 340 324 335 332 344 12 355 342 7 8 21 23 357 2 5 357 343 340 341 327 327 318 335 24 6 335 342 349 35 19 306 330 344 324 31 7 322 98 228 253 250 243 211 207 238 260 264 267 278 282 275 288 317 331 339 339 338 335 334 342
354 6 35 41 35 25 9 347 339 335 333 340 350 39 79 68 20 209 273 325 267 272 308 316 318 326 331 4 350 322 334 323 341 6 353 358 24 3 10 24 25 38 4 341 341 348 343 311 347 3 355 18 28 12 353 334 343 356 330 333 335 334 2 295 267 10 275 279 297 295 285 272 255 249 253 271 293 317 334 347 352 353 353 337 325 326 333 341
5 42 64 52 39 27 14 355 346 343 341 349 26 64 61 65 222 204 266 281 251 290 316 306 317 326 359 19 326 331 357 311 342 6 357 11 25 360 353 4 22 41 350 348 2 9 350 307 345 15 338 347 15 359 320 283 298 314 283 283 295 327 345 294 321 359 279 280 313 339 356 231 235 234 25 6 353 24 12 358 5 359 353 340 327 339 346 346
15 61 64 47 33 25 15 1 349 347 348 4 60 66 75 143 251 207 243 262 264 320 306 299 330 354 350 330 317 355 21 287 341 1 358 10 8 340 350 352 4 14 11 10 353 322 309 266 287 331 301 318 356 337 301 259 315 298 283 320 307 336 358 283 276 269 266 294 302 282 244 210 238 277 11 36 21 18 5 357 9 1 355 356 352 354 353 347
35 78 53 37 28 21 13 3 348 344 358 48 70 55 127 193 206 170 197 268 304 324 315 322 13 52 337 326 329 342 339 234 339 350 339 354 350 329 344 330 355 21 30 15 333 316 314 274 298 326 318 184 343 328 321 57 343 326 20 353 301 298 182 230 272 263 267 298 276 164 294 306 312 305 351 22 9 3 357 354 0 357 358 360 356 353 346 343
44 67 45 29 21 14 7 3 351 349 22 79 82 92 210 209 176 178 202 285 267 340 14 352 341 352 333 324 304 325 340 330 356 11 341 345 346 314 336 333 3 33 30 344 306 346 316 288 297 321 311 296 321 329 343 88 16 359 12 313 307 297 156 26 317 306 353 304 296 19 301 308 339 310 343 2 356 353 350 348 348 350 358 356 347 343 337 335
26 64 49 23 7 356 355 355 350 3 60 71 66 112 201 247 185 207 253 310 260 36 67 151 266 330 345 321 288 314 345 343 356 12 335 343 314 278 337 344 345 24 22 350 271 317 313 302 299 204 299 311 334 9 8 6 21 43 290 306 342 67 359 357 345 330 351 325 310 332 318 310 284 274 339 348 342 344 342 342 343 342 347 345 335 332 332 332
24 75 36 359 345 340 345 345 350 31 71 67 65 136 245 282 248 239 273 331 110 94 84 215 202 22 357 323 288 308 341 337 340 347 321 6 336 306 73 6 343 3 3 12 53 284 333 320 288 35 12 336 341 21 1 336 348 6 354 357 38 77 329 340 345 350 352 328 318 323 325 308 247 248 334 329 331 338 334 335 334 328 328 330 326 324 326 330
38 66 343 343 345 337 339 352 20 50 66 92 165 202 277 278 278 289 344 347 169 155 288 225 189 349 313 298 288 308 335 319 315 323 224 271 326 318 349 41 6 354 343 356 33 301 347 255 266 320 12 360 338 353 335 309 319 340 9 25 14 341 333 318 340 63 67 338 323 315 307 280 256 270 307 310 320 320 311 321 319 317 321 324 325 324 324 326
40 58 317 346 353 343 350 27 42 52 75 94 158 222 299 270 294 322 342 5 133 332 1 230 233 253 237 290 313 323 327 312 302 267 237 270 329 313 359 45 22 349 344 355 4 14 20 258 278 303 332 343 299 290 272 259 250 228 20 45 12 338 22 358 333 63 81 238 236 273 292 280 272 257 276 291 299 291 300 313 313 316 319 319 322 325 326 326
60 84 308 351 357 357 32 57 26 58 103 102 190 234 295 337 344 312 331 15 63 30 16 14 263 229 209 251 319 325 314 302 294 250 227 259 222 224 345 26 19 358 6 343 315 314 263 256 270 285 294 283 280 289 324 173 193 172 131 68 47 3 63 53 312 313 324 235 218 237 251 272 274 248 250 297 299 297 304 313 315 313 312 314 318 320 322 322
84 185 316 3 358 357 53 62 345 22 64 267 259 242 283 2 10 291 314 358 32 40 14 351 292 251 233 270 333 302 304 292 276 258 243 276 251 231 325 23 20 6 6 332 312 321 287 263 270 283 280 255 272 307 29 43 69 70 340 11 82 61 113 143 228 290 300 276 263 259 235 266 279 248 90 309 301 300 307 317 317 310 310 314 314 315 318 317
111 234 314 10 7 9 83 96 20 24 316 304 341 330 319 287 197 291 314 305 331 98 79 289 262 234 276 326 322 307 325 319 290 317 335 335 311 313 352 16 9 357 351 314 328 344 317 298 301 304 305 297 315 348 359 346 19 42 291 284 158 215 47 90 50 329 289 243 223 246 252 266 283 314 320 302 299 303 310 317 314 311 314 315 313 314 314 312
61 332 277 5 28 53 104 161 147 118 314 349 1 335 340 340 261 218 236 264 250 163 184 266 260 139 31 330 310 322 336 309 256 348 358 339 298 312 349 358 351 340 293 288 293 286 265 272 277 301 310 308 313 314 307 316 318 293 278 235 212 245 270 296 315 298 263 245 229 242 264 279 290 300 303 300 305 314 315 315 316 317 315 314 315 314 311 311
77 60 306 342 26 53 82 189 107 101 174 22 3 325 1 337 293 272 217 245 249 188 203 307 297 105 33 0 349 314 309 288 237 318 320 303 284 293 343 344 328 296 288 298 300 287 255 265 268 279 283 282 287 287 290 301 298 291 290 279 270 271 253 243 257 248 249 270 263 250 256 277 287 295 303 306 311 317 313 312 317 322 319 316 314 312 310 311
85 110 79 348 353 27 32 5 39 84 163 166 332 284 195 262 305 326 314 239 292 300 304 24 30 61 24 13 8 295 291 318 312 287 278 273 257 285 317 322 294 283 304 319 332 348 300 281 282 280 274 274 282 287 293 296 288 287 292 290 287 283 268 256 251 250 259 279 270 263 266 276 283 291 300 302 304 308 309 310 314 317 317 314 310 309 310 312
62 157 165 125 230 273 36 349 87 101 80 216 174 202 287 311 319 324 299 313 334 336 49 56 43 76 77 45 32 290 307 325 306 280 275 286 297 312 317 305 281 301 342 346 1 38 333 268 266 270 270 273 280 287 293 294 288 288 290 289 289 286 273 260 256 256 252 247 261 276 283 279 282 289 292 292 296 302 305 305 306 309 310 309 306 308 311 313
57 125 261 4 139 181 184 224 129 103 61 265 171 177 173 217 255 242 268 345 340 327 21 15 236 146 149 142 123 256 288 314 298 286 287 298 307 317 315 302 296 331 37 17 359 54 272 261 263 272 278 280 282 285 289 290 288 287 282 279 281 279 270 262 261 260 250 247 258 268 273 274 277 282 283 287 293 297 300 302 305 310 312 310 308 309 310 312
90 149 241 26 47 155 127 39 101 95 15 295 278 259 192 187 232 251 184 154 270 299 317 229 250 186 191 195 167 230 251 258 272 271 270 289 300 309 293 272 282 319 350 337 321 337 224 267 324 326 296 286 282 281 281 282 283 282 281 281 276 273 271 267 265 262 252 252 257 259 265 272 273 274 278 285 292 300 308 313 317 319 315 314 315 314 314 315
122 140 148 96 50 265 154 73 95 100 16 314 218 230 231 219 215 203 229 212 212 236 224 219 274 335 242 247 248 258 259 251 248 250 249 259 268 270 262 252 269 298 305 284 280 326 258 283 319 316 291 284 284 284 286 289 285 279 278 276 267 264 266 262 258 253 243 251 261 262 264 269 272 277 284 291 302 313 318 321 326 322 317 319 320 317 319 321
130 88 103 104 78 260 177 109 70 95 224 240 209 207 229 247 219 151 321 280 225 230 230 203 168 103 300 289 277 264 257 243 240 246 247 245 251 254 254 256 261 268 272 267 258 229 233 268 297 288 282 286 287 291 296 300 297 285 264 246 248 252 261 266 264 253 240 244 259 266 262 265 277 291 303 312 323 329 324 323 324 318 316 319 321 323 327 327